Regional Weather Roundup
Issued by NWS

Home | Current Version | Previous Version | Text Only | Print | Product List | Glossary Off
Versions: 1 2 3 4 5 6 7 8 9 10 11 12 13 14 15 16 17 18 19 20 21 22 23 24 25 26 27 28 29 30 31 32 33 34 35 36 37 38 39 40 41 42 43 44 45 46 47 48 49 50

000
ASUS43 KDTX 241001
RWRMI
MICHIGAN HOURLY REGIONAL WEATHER ROUNDUP
NATIONAL WEATHER SERVICE DETROIT/PONTIAC MI
600 AM EDT THU JUL 24 2014

NOTE: "FAIR" INDICATES FEW OR NO CLOUDS BELOW 12,000 FEET WITH NO
SIGNIFICANT WEATHER AND/OR OBSTRUCTION TO VISIBILITY.

MIZ047>049-052>055-059>063-066>070-074>076-081>083-241100-
SOUTHEAST LOWER MICHIGAN

CITY           SKY/WX    TMP DP  RH WIND       PRES   REMARKS
ADRIAN         CLEAR     53  49  86 N7        30.11R
ALMA           CLEAR     52  49  89 N3        30.14R
ANN ARBOR      CLEAR     57  49  74 N7        30.10R
BAD AXE        CLEAR     51  50  97 CALM      30.12R
CARO           CLEAR     54  54  97 N3        30.11R
DETROIT CITY   CLEAR     60  51  72 N8        30.08R
DETROIT        PTCLDY    57  50  77 N7        30.09R
FLINT          CLEAR     55  50  83 CALM      30.12R
GROSSE ILE     PTCLDY    57  52  82 N5        30.07R
HILLSDALE      CLEAR     56  52  87 CALM      30.11R
HOWELL         CLEAR     54  51  92 CALM      30.11R

CITY           SKY/WX    TMP DP  RH WIND       PRES   REMARKS
JACKSON        CLEAR     53  51  93 CALM      30.12R
LAMBERTVILLE   CLEAR     54  50  87 CALM      30.09R
LANSING        CLEAR     55  51  86 N6        30.13R
LAPEER         FAIR      50  48  93 CALM      30.11S
MASON          CLEAR     53  52  96 N5        30.12R
MONROE         PTCLDY    52  50  93 CALM      30.07R
MT. CLEMENS    CLEAR     55  51  89 N9        30.08R
PONTIAC        PTCLDY    55  51  86 N6        30.09R
PORT HOPE        N/A     61  55  81 VRB5      30.09S
PORT HURON     CLEAR     52  50  93 NW5       30.09S
TRI CITIES     CLEAR     53  48  83 N7        30.14R
TROY           CLEAR     58  53  84 N7        30.10S
SAGINAW HB     CLEAR     54  52  94 NW6       30.11S
$$
MIZ043>046-050>051-056>058-064>065-071>073-077>080-241100-
SOUTHWEST LOWER MICHIGAN

CITY           SKY/WX    TMP DP  RH WIND       PRES   REMARKS
BATTLE CREEK   MOCLDY    58  54  86 N8        30.13R
BENTON HARBOR  PTCLDY    54  52  93 CALM      30.12R
BIG RAPIDS     CLEAR     48  48 100 CALM      30.15S
COLDWATER      CLOUDY    58  56  94 N3        30.11R
FREMONT        FAIR      49  49  99 CALM      30.15S
HOLLAND        CLEAR     57  51  80 VRB3      30.15R
GRAND RAPIDS   PTCLDY    56  52  86 N5        30.14R
IONIA          FAIR      53  51  92 N6        30.13R
KALAMAZOO      MOCLDY    57  53  86 N7        30.13R
LUDINGTON      FOG       46  46  97 CALM      30.17S VSB 3/4
MARSHALL       CLEAR     56  54  94 N3        30.11R
MOUNT PLEASANT CLEAR     51  48  90 CALM      30.14R
MUSKEGON       CLEAR     55  49  80 N6        30.15R
SOUTH HAVEN    PTCLDY    56  54  93 NE5       30.13R
$$
MIZ016>042-241100-
NORTHERN LOWER MICHIGAN

CITY           SKY/WX    TMP DP  RH WIND       PRES   REMARKS
ALPENA         CLEAR     49  47  93 CALM      30.13S
BEAVER ISLAND  CLEAR     44  44 100 CALM      30.17R
BELLAIRE       PTCLDY    44  43  95 CALM      30.17R
CADILLAC         N/A     42  42 100 CALM      30.17R
CHARLEVOIX     CLEAR     54  50  84 CALM      30.19R
FRANKFORT      CLEAR     45  41  88 CALM      30.18R
GAYLORD        CLEAR     45  41  86 CALM      30.16R
GRAYLING       CLEAR     43  43 100 CALM      30.17R
HARBOR SPRINGS CLEAR     51  47  89 CALM      30.16R
HOUGHTON LAKE  CLEAR     46  44  93 CALM      30.16R
MANISTEE       PTCLDY    45  41  87 CALM      30.18R
OSCODA         PTCLDY    54  48  81 NW5       30.12R
PELLSTON       CLEAR     44  42  93 CALM      30.16S
ROGERS CITY    CLEAR     51  50  97 W5        30.14S
TRAVERSE CITY  CLEAR     48  45  89 CALM      30.16R
$$
MIZ007>008-015-241100-
EASTERN UPPER MICHIGAN

CITY           SKY/WX    TMP DP  RH WIND       PRES   REMARKS
KINROSS        CLEAR     46  45  93 W3        30.14S
MACKINAC ISLAN CLEAR     50  46  87 NW7       30.15S
NEWBERRY       CLEAR     40  39  96 W3        30.15S
S. S. MARIE    CLEAR     50  46  86 W5        30.13S
MUNISING         N/A     45  41  86 S8        30.15S
$$
MIZ004>006-011>014-085-241100-
CENTRAL UPPER MICHIGAN

CITY           SKY/WX    TMP DP  RH WIND       PRES   REMARKS
MANISTIQUE     CLEAR     45  43  93 W3        30.16S
ESCANABA       CLEAR     46  43  87 CALM      30.17S
MENOMINEE      CLEAR     48  46  93 CALM      30.18S
SAWYER-GWINN   CLEAR     44  39  84 CALM      30.18R
$$
MIZ001>003-009>011-084-241100-
WESTERN UPPER MICHIGAN

CITY           SKY/WX    TMP DP  RH WIND       PRES   REMARKS
IRON MOUNTAIN  CLEAR     44  42  93 CALM      30.18S
HOUGHTON       CLEAR     51  46  83 NW8       30.16R
COPPER HARBOR    N/A     59  48  67 NW7       30.13S
$$

ABBREVIATIONS USED IN REMARKS
   TC - TEMPERATURE IN CELSIUS
  WCI - WIND CHILL INDEX
   HX - HEAT INDEX
  VSB - VISIBILITY



USA.gov is the U.S. government's official web portal to all federal, state and local government web resources and services.